Flag for U.S.A. Weather past 2 weeks in Irving, Texas, U.S.A.

Now
90 °F

Partly sunny.


Feels Like: 92 °F
Forecast: 74 / 87 °F
Wind: 6 mph from East

Location: Dallas / Fort Worth International Airport

Current Time: Sep 16, 2014 at 6:46:19 PM

Latest Report: Sep 16, 2014 at 5:53 PM


Visibility: 10 mi

Pressure: 29.94 "Hg

Humidity: 43%

Dew point: 65 °F

Location of IrvingLocation

Historic Weather in Irving — Graph

°F

Irving temperature yesterday

Maximum temperature yesterday: 85 °F (at 2:53 PM)
Minimum temperature yesterday: 71 °F (at 4:53 AM)
Average temperature yesterday: 78 °F

Past Weeks' High & Low Weather Summary

 TemperatureHumidityPressure
High101 °F (Sep 10, 3:53 PM)94% (Sep 14, 9:53 AM)30.28 "Hg (Sep 14, 9:53 AM)
Low56 °F (Sep 13, 6:53 AM)33% (Sep 10, 3:53 PM)29.70 "Hg (Sep 10, 4:53 PM)
Average81 °F64%29.99 "Hg
* Reported Sep 1 4:53 PM — Sep 16 4:53 PM, Irving, Weather by CustomWeather, © 2014

Note: Actual official high and low records may vary slightly from our data, if they occured in-between our weather recording intervals... More about our weather records

Advertising

Irving weather history for previous 24 hours

 ConditionsComfort  
Time TempWeatherWind HumidityBarometerVisibility
4:53 PM
Sep 16
90 °FPartly sunny.No wind45%29.96 "Hg10 mi
3:53 PM90 °FMostly cloudy.6 mph47%29.98 "Hg10 mi
2:53 PM89 °FBroken clouds.5 mph46%30.01 "Hg10 mi
1:53 PM89 °FBroken clouds.6 mph50%30.03 "Hg10 mi
12:53 PM86 °FBroken clouds.No wind55%30.05 "Hg10 mi
11:53 AM84 °FBroken clouds.No wind61%30.08 "Hg10 mi
10:53 AM83 °FBroken clouds.3 mph65%30.10 "Hg10 mi
9:53 AM82 °FBroken clouds.3 mph70%30.10 "Hg10 mi
8:53 AM78 °FBroken clouds.5 mph76%30.09 "Hg10 mi
7:53 AM76 °FPassing clouds.No wind80%30.09 "Hg10 mi
6:53 AM75 °FClear.No wind82%30.08 "Hg10 mi
5:53 AM76 °FPartly cloudy.No wind77%30.07 "Hg10 mi
4:53 AM76 °FPartly cloudy.3 mph77%30.07 "Hg10 mi
3:53 AM76 °FPassing clouds.3 mph77%30.07 "Hg10 mi
2:53 AM78 °FPassing clouds.No wind74%30.08 "Hg10 mi
1:53 AM77 °FPassing clouds.3 mph77%30.08 "Hg10 mi
12:53 AM77 °FMostly cloudy.3 mph77%30.09 "Hg10 mi
11:53 PM
Sep 15
79 °FPassing clouds.6 mph69%30.09 "Hg10 mi
10:53 PM79 °FMostly cloudy.3 mph72%30.09 "Hg10 mi
9:53 PM80 °FOvercast.No wind69%30.09 "Hg10 mi
8:53 PM80 °FMostly cloudy.3 mph71%30.07 "Hg10 mi
7:53 PM82 °FMostly cloudy.5 mph60%30.06 "Hg10 mi
6:53 PM84 °FMostly cloudy.3 mph57%30.06 "Hg10 mi
Weather by CustomWeather, © 2014

See weather overviewHow to use our weather pages